Date,Installs,Update checks
2014-06-09,1,
2014-06-10,2,
2014-06-11,1,
2014-06-12,1,
2014-06-13,0,
2014-06-14,3,
2014-06-15,2,
2014-06-16,0,
2014-06-17,1,
2014-06-18,0,
2014-06-19,2,
2014-06-20,3,
2014-06-21,1,
2014-06-22,4,
2014-06-23,1,
2014-06-24,2,
2014-06-25,2,
2014-06-26,2,
2014-06-27,4,
2014-06-28,0,
2014-06-29,1,
2014-06-30,0,
2014-07-01,1,
2014-07-02,2,
2014-07-03,0,
2014-07-04,1,
2014-07-05,1,
2014-07-06,4,
2014-07-07,1,
2014-07-08,1,
2014-07-09,2,
2014-07-10,6,
2014-07-11,2,
2014-07-12,3,
2014-07-13,3,
2014-07-14,7,
2014-07-15,7,
2014-07-16,2,
2014-07-17,4,
2014-07-18,1,
2014-07-19,1,
2014-07-20,2,
2014-07-21,3,
2014-07-22,3,
2014-07-23,4,
2014-07-24,2,
2014-07-25,4,
2014-07-26,1,
2014-07-27,1,
2014-07-28,2,
2014-07-29,3,
2014-07-30,3,
2014-07-31,4,
2014-08-01,2,
2014-08-02,2,
2014-08-03,3,
2014-08-04,1,
2014-08-05,2,
2014-08-06,2,
2014-08-07,2,
2014-08-08,5,
2014-08-09,4,
2014-08-10,1,
2014-08-11,5,
2014-08-12,1,
2014-08-13,2,
2014-08-14,3,
2014-08-15,2,
2014-08-16,4,
2014-08-17,1,
2014-08-18,1,
2014-08-19,2,
2014-08-20,3,
2014-08-21,5,
2014-08-22,1,
2014-08-23,3,
2014-08-24,2,
2014-08-25,3,
2014-08-26,3,
2014-08-27,3,
2014-08-28,3,
2014-08-29,3,
2014-08-30,1,
2014-08-31,4,
2014-09-01,5,
2014-09-02,4,
2014-09-03,3,
2014-09-04,2,
2014-09-05,3,
2014-09-06,0,
2014-09-07,4,
2014-09-08,3,
2014-09-09,3,
2014-09-10,1,
2014-09-11,1,
2014-09-12,5,
2014-09-13,2,
2014-09-14,3,
2014-09-15,2,
2014-09-16,3,
2014-09-17,5,
2014-09-18,5,
2014-09-19,4,
2014-09-20,0,
2014-09-21,1,
2014-09-22,2,
2014-09-23,0,
2014-09-24,1,
2014-09-25,1,
2014-09-26,5,
2014-09-27,0,
2014-09-28,2,
2014-09-29,0,
2014-09-30,1,
2014-10-01,3,
2014-10-02,2,
2014-10-03,1,
2014-10-04,2,
2014-10-05,3,
2014-10-06,0,
2014-10-07,0,
2014-10-08,2,
2014-10-09,3,
2014-10-10,3,
2014-10-11,2,
2014-10-12,0,
2014-10-13,3,
2014-10-14,0,
2014-10-15,3,
2014-10-16,1,
2014-10-17,1,
2014-10-18,2,
2014-10-19,2,
2014-10-20,2,
2014-10-21,0,
2014-10-22,2,
2014-10-23,0,94
2014-10-24,0,52
2014-10-25,1,70
2014-10-26,3,60
2014-10-27,1,88
2014-10-28,0,69
2014-10-29,2,85
2014-10-30,1,60
2014-10-31,2,88
2014-11-01,1,59
2014-11-02,0,70
2014-11-03,1,71
2014-11-04,1,83
2014-11-05,1,66
2014-11-06,1,78
2014-11-07,1,64
2014-11-08,3,73
2014-11-09,1,65
2014-11-10,1,72
2014-11-11,1,67
2014-11-12,0,72
2014-11-13,3,84
2014-11-14,1,74
2014-11-15,0,70
2014-11-16,0,59
2014-11-17,2,78
2014-11-18,1,59
2014-11-19,2,67
2014-11-20,0,71
2014-11-21,1,75
2014-11-22,2,67
2014-11-23,1,66
2014-11-24,1,80
2014-11-25,1,84
2014-11-26,3,76
2014-11-27,1,71
2014-11-28,1,77
2014-11-29,1,66
2014-11-30,0,72
2014-12-01,3,87
2014-12-02,0,68
2014-12-03,0,85
2014-12-04,1,65
2014-12-05,1,89
2014-12-06,1,68
2014-12-07,0,85
2014-12-08,0,77
2014-12-09,1,77
2014-12-10,1,74
2014-12-11,2,80
2014-12-12,3,71
2014-12-13,2,75
2014-12-14,2,70
2014-12-15,1,79
2014-12-16,0,56
2014-12-17,1,78
2014-12-18,0,66
2014-12-19,0,76
2014-12-20,0,60
2014-12-21,4,67
2014-12-22,4,81
2014-12-23,1,74
2014-12-24,0,56
2014-12-25,0,61
2014-12-26,1,68
2014-12-27,0,65
2014-12-28,0,75
2014-12-29,2,64
2014-12-30,2,80
2014-12-31,0,56
2015-01-01,1,64
2015-01-02,2,73
2015-01-03,2,64
2015-01-04,1,83
2015-01-05,0,67
2015-01-06,0,68
2015-01-07,2,76
2015-01-08,1,66
2015-01-09,6,71
2015-01-10,4,69
2015-01-11,3,66
2015-01-12,4,73
2015-01-13,3,72
2015-01-14,2,76
2015-01-15,4,78
2015-01-16,2,79
2015-01-17,1,73
2015-01-18,1,73
2015-01-19,2,94
2015-01-20,0,67
2015-01-21,0,83
2015-01-22,2,85
2015-01-23,1,75
2015-01-24,4,83
2015-01-25,3,77
2015-01-26,3,99
2015-01-27,3,75
2015-01-28,0,93
2015-01-29,0,78
2015-01-30,0,91
2015-01-31,1,79
2015-02-01,1,90
2015-02-02,0,80
2015-02-03,0,83
2015-02-04,5,86
2015-02-05,0,82
2015-02-06,2,94
2015-02-07,1,80
2015-02-08,2,91
2015-02-09,0,88
2015-02-10,1,96
2015-02-11,0,83
2015-02-12,0,96
2015-02-13,0,80
2015-02-14,1,82
2015-02-15,1,82
2015-02-16,3,91
2015-02-17,1,84
2015-02-18,0,98
2015-02-19,2,85
2015-02-20,2,91
2015-02-21,4,79
2015-02-22,2,88
2015-02-23,0,87
2015-02-24,0,80
2015-02-25,2,94
2015-02-26,2,84
2015-02-27,3,100
2015-02-28,3,83
2015-03-01,2,93
2015-03-02,0,98
2015-03-03,1,81
2015-03-04,1,95
2015-03-05,2,95
2015-03-06,2,95
2015-03-07,3,87
2015-03-08,2,75
2015-03-09,2,95
2015-03-10,0,89
2015-03-11,3,92
2015-03-12,0,93
2015-03-13,1,101
2015-03-14,3,87
2015-03-15,2,91
2015-03-16,2,88
2015-03-17,0,87
2015-03-18,0,85
2015-03-19,1,95
2015-03-20,2,77
2015-03-21,3,93
2015-03-22,1,80
2015-03-23,2,109
2015-03-24,0,85
2015-03-25,0,106
2015-03-26,0,86
2015-03-27,1,118
2015-03-28,0,82
2015-03-29,1,105
2015-03-30,0,80
2015-03-31,0,96
2015-04-01,1,93
2015-04-02,0,93
2015-04-03,2,87
2015-04-04,0,88
2015-04-05,0,88
2015-04-06,0,86
2015-04-07,2,88
2015-04-08,0,108
2015-04-09,0,88
2015-04-10,0,103
2015-04-11,0,87
2015-04-12,1,87
2015-04-13,1,96
2015-04-14,1,99
2015-04-15,0,90
2015-04-16,0,101
2015-04-17,1,98
2015-04-18,0,98
2015-04-19,0,75
2015-04-20,0,108
2015-04-21,0,92
2015-04-22,0,95
2015-04-23,1,98
2015-04-24,0,99
2015-04-25,0,95
2015-04-26,2,86
2015-04-27,2,95
2015-04-28,1,85
2015-04-29,0,96
2015-04-30,0,87
2015-05-01,0,93
2015-05-02,0,73
2015-05-03,3,95
2015-05-04,0,93
2015-05-05,1,102
2015-05-06,1,83
2015-05-07,1,104
2015-05-08,2,89
2015-05-09,3,94
2015-05-10,3,81
2015-05-11,1,102
2015-05-12,0,88
2015-05-13,3,91
2015-05-14,1,93
2015-05-15,3,89
2015-05-16,1,88
2015-05-17,3,92
2015-05-18,1,99
2015-05-19,0,96
2015-05-20,2,95
2015-05-21,0,94
2015-05-22,0,99
2015-05-23,0,93
2015-05-24,1,83
2015-05-25,4,106
2015-05-26,2,100
2015-05-27,1,89
2015-05-28,0,46
2015-05-29,0,117
2015-05-30,0,71
2015-05-31,4,109
2015-06-01,2,90
2015-06-02,0,104
2015-06-03,1,83
2015-06-04,3,101
2015-06-05,3,90
2015-06-06,1,104
2015-06-07,0,76
2015-06-08,0,108
2015-06-09,0,101
2015-06-10,1,98
2015-06-11,0,93
2015-06-12,1,110
2015-06-13,1,92
2015-06-14,0,97
2015-06-15,1,75
2015-06-16,1,119
2015-06-17,0,81
2015-06-18,1,116
2015-06-19,3,88
2015-06-20,2,106
2015-06-21,3,90
2015-06-22,1,117
2015-06-23,0,83
2015-06-24,4,117
2015-06-25,1,82
2015-06-26,3,110
2015-06-27,1,82
2015-06-28,0,114
2015-06-29,0,90
2015-06-30,4,120
2015-07-01,2,86
2015-07-02,1,108
2015-07-03,0,102
2015-07-04,0,103
2015-07-05,2,95
2015-07-06,0,117
2015-07-07,0,87
2015-07-08,2,111
2015-07-09,0,91
2015-07-10,5,109
2015-07-11,2,86
2015-07-12,1,111
2015-07-13,3,93
2015-07-14,1,110
2015-07-15,0,87
2015-07-16,1,104
2015-07-17,1,91
2015-07-18,1,97
2015-07-19,1,83
2015-07-20,0,107
2015-07-21,0,91
2015-07-22,0,92
2015-07-23,0,87
2015-07-24,1,90
2015-07-25,0,85
2015-07-26,3,93
2015-07-27,0,93
2015-07-28,1,90
2015-07-29,0,88
2015-07-30,0,82
2015-07-31,0,97
2015-08-01,1,82
2015-08-02,2,86
2015-08-03,5,96
2015-08-04,2,96
2015-08-05,3,103
2015-08-06,3,95
2015-08-07,3,100
2015-08-08,0,95
2015-08-09,0,96
2015-08-10,3,99
2015-08-11,1,107
2015-08-12,1,96
2015-08-13,1,99
2015-08-14,0,102
2015-08-15,0,95
2015-08-16,1,97
2015-08-17,0,100
2015-08-18,2,103
2015-08-19,1,99
2015-08-20,1,91
2015-08-21,5,112
2015-08-22,2,104
2015-08-23,0,102
2015-08-24,2,105
2015-08-25,1,117
2015-08-26,2,106
2015-08-27,5,103
2015-08-28,0,111
2015-08-29,0,86
2015-08-30,1,107
2015-08-31,0,108
2015-09-01,1,99
2015-09-02,1,112
2015-09-03,0,106
2015-09-04,1,97
2015-09-05,0,103
2015-09-06,4,92
2015-09-07,1,114
2015-09-08,2,107
2015-09-09,1,109
2015-09-10,0,107
2015-09-11,2,106
2015-09-12,4,90
2015-09-13,2,106
2015-09-14,1,94
2015-09-15,0,106
2015-09-16,3,101
2015-09-17,0,110
2015-09-18,0,111
2015-09-19,1,101
2015-09-20,4,106
2015-09-21,1,114
2015-09-22,6,107
2015-09-23,1,119
2015-09-24,1,111
2015-09-25,2,108
2015-09-26,0,106
2015-09-27,0,100
2015-09-28,1,106
2015-09-29,0,112
2015-09-30,0,99
2015-10-01,0,114
2015-10-02,1,110
2015-10-03,1,108
2015-10-04,1,97
2015-10-05,1,121
2015-10-06,0,114
2015-10-07,0,117
2015-10-08,0,113
2015-10-09,3,103
2015-10-10,1,95
2015-10-11,0,109
2015-10-12,0,119
2015-10-13,1,104
2015-10-14,3,106
2015-10-15,1,116
2015-10-16,0,100
2015-10-17,0,110
2015-10-18,1,92
2015-10-19,0,110
2015-10-20,2,103
2015-10-21,1,108
2015-10-22,1,105
2015-10-23,1,106
2015-10-24,3,97
2015-10-25,4,111
2015-10-26,1,118
2015-10-27,2,113
2015-10-28,1,112
2015-10-29,0,118
2015-10-30,3,113
2015-10-31,0,96
2015-11-01,1,113
2015-11-02,1,111
2015-11-03,3,112
2015-11-04,3,100
2015-11-05,6,120
2015-11-06,4,110
2015-11-07,1,119
2015-11-08,2,104
2015-11-09,0,118
2015-11-10,0,102
2015-11-11,0,115
2015-11-12,0,93
2015-11-13,1,104
2015-11-14,2,96
2015-11-15,3,107
2015-11-16,2,87
2015-11-17,2,100
2015-11-18,0,99
2015-11-19,0,100
2015-11-20,0,100
2015-11-21,0,82
2015-11-22,1,89
2015-11-23,0,93
2015-11-24,0,93
2015-11-25,1,89
2015-11-26,3,80
2015-11-27,2,92
2015-11-28,1,78
2015-11-29,1,83
2015-11-30,2,85
2015-12-01,6,98
2015-12-02,3,83
2015-12-03,0,92
2015-12-04,1,88
2015-12-05,4,78
2015-12-06,1,78
2015-12-07,1,105
2015-12-08,1,91
2015-12-09,2,89
2015-12-10,5,91
2015-12-11,0,84
2015-12-12,2,81
2015-12-13,4,83
2015-12-14,1,80
2015-12-15,1,93
2015-12-16,3,73
2015-12-17,3,93
2015-12-18,6,77
2015-12-19,3,75
2015-12-20,1,75
2015-12-21,0,84
2015-12-22,3,71
2015-12-23,5,85
2015-12-24,2,66
2015-12-25,1,82
2015-12-26,2,69
2015-12-27,1,86
2015-12-28,2,79
2015-12-29,1,88
2015-12-30,1,72
2015-12-31,1,93
2016-01-01,1,63
2016-01-02,2,86
2016-01-03,2,72
2016-01-04,1,98
2016-01-05,2,73
2016-01-06,0,94
2016-01-07,2,77
2016-01-08,0,85
2016-01-09,2,76
2016-01-10,1,89
2016-01-11,0,85
2016-01-12,2,84
2016-01-13,1,87
2016-01-14,3,87
2016-01-15,1,87
2016-01-16,3,84
2016-01-17,2,77
2016-01-18,1,83
2016-01-19,3,94
2016-01-20,2,91
2016-01-21,0,90
2016-01-22,2,87
2016-01-23,3,86
2016-01-24,0,77
2016-01-25,1,91
2016-01-26,3,94
2016-01-27,0,97
2016-01-28,1,77
2016-01-29,3,99
2016-01-30,5,83
2016-01-31,4,88
2016-02-01,1,86
2016-02-02,2,93
2016-02-03,2,92
2016-02-04,3,92
2016-02-05,1,85
2016-02-06,0,81
2016-02-07,0,76
2016-02-08,0,95
2016-02-09,0,104
2016-02-10,1,93
2016-02-11,2,81
2016-02-12,5,93
2016-02-13,2,84
2016-02-14,6,89
2016-02-15,0,78
2016-02-16,2,98
2016-02-17,3,83
2016-02-18,2,104
2016-02-19,1,82
2016-02-20,4,86
2016-02-21,2,73
2016-02-22,1,98
2016-02-23,0,78
2016-02-24,0,100
2016-02-25,1,86
2016-02-26,2,99
2016-02-27,0,68
2016-02-28,1,94
2016-02-29,0,93
2016-03-01,2,105
2016-03-02,3,87
2016-03-03,3,92
2016-03-04,7,82
2016-03-05,3,88
2016-03-06,4,85
2016-03-07,1,91
2016-03-08,2,88
2016-03-09,3,92
2016-03-10,1,106
2016-03-11,3,93
2016-03-12,0,81
2016-03-13,0,83
2016-03-14,1,87
2016-03-15,2,90
2016-03-16,0,92
2016-03-17,1,87
2016-03-18,0,79
2016-03-19,4,93
2016-03-20,3,83
2016-03-21,1,90
2016-03-22,2,96
2016-03-23,1,95
2016-03-24,3,92
2016-03-25,3,86
2016-03-26,0,81
2016-03-27,3,88
2016-03-28,4,76
2016-03-29,6,93
2016-03-30,6,79
2016-03-31,2,94
2016-04-01,0,85
2016-04-02,0,87
2016-04-03,1,78
2016-04-04,4,95
2016-04-05,0,91
2016-04-06,8,106
2016-04-07,2,89
2016-04-08,0,94
2016-04-09,2,86
2016-04-10,5,82
2016-04-11,4,95
2016-04-12,0,91
2016-04-13,4,94
2016-04-14,4,105
2016-04-15,5,87
2016-04-16,3,98
2016-04-17,6,93
2016-04-18,1,102
2016-04-19,0,85
2016-04-20,4,99
2016-04-21,1,105
2016-04-22,1,98
2016-04-23,2,91
2016-04-24,4,99
2016-04-25,5,101
2016-04-26,4,117
2016-04-27,4,88
2016-04-28,2,104
2016-04-29,2,90
2016-04-30,1,102
2016-05-01,2,93
2016-05-02,2,108
2016-05-03,0,93
2016-05-04,2,112
2016-05-05,1,98
2016-05-06,0,108
2016-05-07,0,81
2016-05-08,0,100
2016-05-09,1,101
2016-05-10,2,114
2016-05-11,0,95
2016-05-12,3,110
2016-05-13,2,106
2016-05-14,0,103
2016-05-15,1,98
2016-05-16,3,108
2016-05-17,0,110
2016-05-18,1,116
2016-05-19,5,103
2016-05-20,0,98
2016-05-21,1,107
2016-05-22,0,103
2016-05-23,1,107
2016-05-24,0,113
2016-05-25,1,113
2016-05-26,2,140
2016-05-27,3,108
2016-05-28,4,126
2016-05-29,2,114
2016-05-30,3,142
2016-05-31,3,133
2016-06-01,2,141
2016-06-02,0,136
2016-06-03,2,150
2016-06-04,1,122
2016-06-05,1,146
2016-06-06,1,130
2016-06-07,2,155
2016-06-08,0,124
2016-06-09,0,150
2016-06-10,3,131
2016-06-11,2,128
2016-06-12,1,125
2016-06-13,0,125
2016-06-14,1,139
2016-06-15,3,130
2016-06-16,1,139
2016-06-17,4,137
2016-06-18,1,119
2016-06-19,0,126
2016-06-20,0,129
2016-06-21,2,135
2016-06-22,3,132
2016-06-23,1,142
2016-06-24,1,128
2016-06-25,1,122
2016-06-26,1,118
2016-06-27,1,154
2016-06-28,0,126
2016-06-29,0,131
2016-06-30,3,131
2016-07-01,0,135
2016-07-02,1,124
2016-07-03,1,131
2016-07-04,0,124
2016-07-05,1,140
2016-07-06,3,137
2016-07-07,2,125
2016-07-08,0,144
2016-07-09,4,121
2016-07-10,1,123
2016-07-11,0,139
2016-07-12,1,126
2016-07-13,4,147
2016-07-14,1,126
2016-07-15,3,129
2016-07-16,0,118
2016-07-17,1,141
2016-07-18,1,133
2016-07-19,1,150
2016-07-20,0,123
2016-07-21,1,148
2016-07-22,1,125
2016-07-23,0,145
2016-07-24,2,116
2016-07-25,0,151
2016-07-26,1,142
2016-07-27,4,140
2016-07-28,3,134
2016-07-29,1,144
2016-07-30,2,134
2016-07-31,2,129
2016-08-01,4,157
2016-08-02,5,140
2016-08-03,1,141
2016-08-04,0,132
2016-08-05,6,146
2016-08-06,2,126
2016-08-07,1,138
2016-08-08,4,142
2016-08-09,3,153
2016-08-10,1,141
2016-08-11,3,154
2016-08-12,2,140
2016-08-13,0,132
2016-08-14,5,135
2016-08-15,2,153
2016-08-16,2,143
2016-08-17,2,153
2016-08-18,2,149
2016-08-19,3,158
2016-08-20,0,127
2016-08-21,2,134
2016-08-22,0,153
2016-08-23,1,143
2016-08-24,2,157
2016-08-25,1,139
2016-08-26,5,131
2016-08-27,0,144
2016-08-28,1,137
2016-08-29,2,160
2016-08-30,0,154
2016-08-31,4,151
2016-09-01,3,138
2016-09-02,4,159
2016-09-03,1,144
2016-09-04,0,146
2016-09-05,1,150
2016-09-06,0,156
2016-09-07,4,144
2016-09-08,3,153
2016-09-09,6,154
2016-09-10,6,148
2016-09-11,1,145
2016-09-12,3,164
2016-09-13,4,148
2016-09-14,0,166
2016-09-15,2,146
2016-09-16,1,165
2016-09-17,6,148
2016-09-18,1,138
2016-09-19,1,160
2016-09-20,1,162
2016-09-21,3,168
2016-09-22,0,152
2016-09-23,2,171
2016-09-24,2,146
2016-09-25,0,146
2016-09-26,4,166
2016-09-27,5,152
2016-09-28,1,175
2016-09-29,3,149
2016-09-30,4,164
2016-10-01,2,149
2016-10-02,0,150
2016-10-03,0,158
2016-10-04,1,171
2016-10-05,2,150
2016-10-06,1,171
2016-10-07,2,157
2016-10-08,2,163
2016-10-09,4,146
2016-10-10,2,165
2016-10-11,1,181
2016-10-12,3,166
2016-10-13,1,176
2016-10-14,0,158
2016-10-15,0,158
2016-10-16,4,159
2016-10-17,0,182
2016-10-18,0,164
2016-10-19,3,171
2016-10-20,1,173
2016-10-21,5,149
2016-10-22,6,162
2016-10-23,1,175
2016-10-24,3,161
2016-10-25,1,185
2016-10-26,2,162
2016-10-27,1,185
2016-10-28,0,152
2016-10-29,1,160
2016-10-30,1,164
2016-10-31,1,189
2016-11-01,1,181
2016-11-02,2,174
2016-11-03,4,188
2016-11-04,5,170
2016-11-05,3,166
2016-11-06,2,166
2016-11-07,3,199
2016-11-08,3,180
2016-11-09,2,191
2016-11-10,0,177
2016-11-11,0,163
2016-11-12,1,166
2016-11-13,3,161
2016-11-14,4,191
2016-11-15,6,175
2016-11-16,2,202
2016-11-17,0,169
2016-11-18,2,178
2016-11-19,2,167
2016-11-20,4,164
2016-11-21,6,200
2016-11-22,2,173
2016-11-23,1,194
2016-11-24,1,163
2016-11-25,4,181
2016-11-26,0,151
2016-11-27,3,182
2016-11-28,0,186
2016-11-29,0,172
2016-11-30,2,183
2016-12-01,1,185
2016-12-02,4,164
2016-12-03,2,166
2016-12-04,4,148
2016-12-05,3,181
2016-12-06,0,170
2016-12-07,4,185
2016-12-08,1,179
2016-12-09,2,179
2016-12-10,1,162
2016-12-11,0,174
2016-12-12,0,178
2016-12-13,1,182
2016-12-14,4,171
2016-12-15,9,185
2016-12-16,2,163
2016-12-17,2,173
2016-12-18,2,152
2016-12-19,2,190
2016-12-20,1,169
2016-12-21,1,181
2016-12-22,3,170
2016-12-23,0,171
2016-12-24,2,161
2016-12-25,5,145
2016-12-26,2,168
2016-12-27,1,170
2016-12-28,0,159
2016-12-29,1,159
2016-12-30,2,170
2016-12-31,2,139
2017-01-01,0,156
2017-01-02,1,169
2017-01-03,5,177
2017-01-04,2,179
2017-01-05,2,184
2017-01-06,0,187
2017-01-07,5,163
2017-01-08,2,187
2017-01-09,1,172
2017-01-10,3,187
2017-01-11,2,189
2017-01-12,3,179
2017-01-13,0,180
2017-01-14,3,159
2017-01-15,1,174
2017-01-16,0,183
2017-01-17,2,185
2017-01-18,0,184
2017-01-19,0,199
2017-01-20,2,178
2017-01-21,7,184
2017-01-22,4,160
2017-01-23,0,214
2017-01-24,2,176
2017-01-25,1,200
2017-01-26,1,162
2017-01-27,1,190
2017-01-28,5,164
2017-01-29,2,182
2017-01-30,3,180
2017-01-31,4,179
2017-02-01,1,185
2017-02-02,0,192
2017-02-03,2,197
2017-02-04,3,169
2017-02-05,4,166
2017-02-06,0,192
2017-02-07,3,195
2017-02-08,2,187
2017-02-09,1,176
2017-02-10,2,191
2017-02-11,3,186
2017-02-12,1,164
2017-02-13,1,192
2017-02-14,0,183
2017-02-15,0,190
2017-02-16,1,179
2017-02-17,0,183
2017-02-18,1,177
2017-02-19,0,170
2017-02-20,1,204
2017-02-21,1,176
2017-02-22,1,208
2017-02-23,1,162
2017-02-24,1,200
2017-02-25,0,153
2017-02-26,1,176
2017-02-27,1,189
2017-02-28,2,181
2017-03-01,1,191
2017-03-02,1,183
2017-03-03,1,175
2017-03-04,5,172
2017-03-05,1,182
2017-03-06,2,186
2017-03-07,0,194
2017-03-08,2,185
2017-03-09,1,184
2017-03-10,2,190
2017-03-11,4,168
2017-03-12,2,175
2017-03-13,2,196
2017-03-14,3,188
2017-03-15,0,206
2017-03-16,1,162
2017-03-17,2,209
2017-03-18,0,172
2017-03-19,3,184
2017-03-20,2,191
2017-03-21,4,173
2017-03-22,2,181
2017-03-23,0,186
2017-03-24,1,183
2017-03-25,0,177
2017-03-26,4,159
2017-03-27,3,197
2017-03-28,1,172
2017-03-29,0,199
2017-03-30,4,173
2017-03-31,0,204
2017-04-01,1,186
2017-04-02,2,178
2017-04-03,1,191
2017-04-04,0,196
2017-04-05,1,199
2017-04-06,0,188
2017-04-07,1,187
2017-04-08,1,170
2017-04-09,2,183
2017-04-10,1,200
2017-04-11,2,177
2017-04-12,4,177
2017-04-13,4,183
2017-04-14,7,175
2017-04-15,1,177
2017-04-16,0,182
2017-04-17,2,189
2017-04-18,1,178
2017-04-19,1,190
2017-04-20,0,179
2017-04-21,1,185
2017-04-22,0,3
2017-04-23,0,262
2017-04-24,3,130
2017-04-25,3,249
2017-04-26,0,151
2017-04-27,2,217
2017-04-28,0,159
2017-04-29,0,208
2017-04-30,1,129
2017-05-01,1,207
2017-05-02,0,182
2017-05-03,2,209
2017-05-04,0,178
2017-05-05,1,213
2017-05-06,0,151
2017-05-07,3,195
2017-05-08,2,175
2017-05-09,3,202
2017-05-10,1,184
2017-05-11,1,203
2017-05-12,0,151
2017-05-13,1,201
2017-05-14,0,144
2017-05-15,2,231
2017-05-16,1,169
2017-05-17,0,216
2017-05-18,0,160
2017-05-19,0,220
2017-05-20,0,152
2017-05-21,6,186
2017-05-22,1,189
2017-05-23,1,188
2017-05-24,0,175
2017-05-25,1,196
2017-05-26,0,174
2017-05-27,2,171
2017-05-28,0,159
2017-05-29,2,188
2017-05-30,2,185
2017-05-31,0,185
2017-06-01,1,188
2017-06-02,0,182
2017-06-03,2,162
2017-06-04,0,181
2017-06-05,2,182
2017-06-06,0,189
2017-06-07,1,184
2017-06-08,1,179
2017-06-09,0,170
2017-06-10,1,157
2017-06-11,0,168
2017-06-12,2,177
2017-06-13,4,193
2017-06-14,2,187
2017-06-15,1,197
2017-06-16,3,186
2017-06-17,3,172
2017-06-18,1,184
2017-06-19,0,177
2017-06-20,2,199
2017-06-21,2,180
2017-06-22,1,202
2017-06-23,0,176
2017-06-24,3,160
2017-06-25,1,168
2017-06-26,1,184
2017-06-27,4,170
2017-06-28,4,200
2017-06-29,1,170
2017-06-30,0,194
2017-07-01,2,163
2017-07-02,4,195
2017-07-03,5,163
2017-07-04,1,197
2017-07-05,3,172
2017-07-06,3,183
2017-07-07,0,165
2017-07-08,2,165
2017-07-09,1,170
2017-07-10,3,178
2017-07-11,1,159
2017-07-12,1,198
2017-07-13,3,160
2017-07-14,1,197
2017-07-15,5,160
2017-07-16,3,178
2017-07-17,1,159
2017-07-18,3,204
2017-07-19,4,163
2017-07-20,4,190
2017-07-21,2,253
2017-07-22,3,142
2017-07-23,0,208
2017-07-24,0,181
2017-07-25,0,201
2017-07-26,2,167
2017-07-27,1,187
2017-07-28,1,173
2017-07-29,3,179
2017-07-30,1,159
2017-07-31,3,181
2017-08-01,3,181
2017-08-02,0,181
2017-08-03,0,175
2017-08-04,2,198
2017-08-05,2,166
2017-08-06,1,175
2017-08-07,2,184
2017-08-08,0,187
2017-08-09,2,165
2017-08-10,1,177
2017-08-11,4,169
2017-08-12,3,176
2017-08-13,0,170
2017-08-14,2,181
2017-08-15,0,181
2017-08-16,1,167
2017-08-17,3,168
2017-08-18,1,176
2017-08-19,2,161
2017-08-20,2,153
2017-08-21,5,181
2017-08-22,4,179
2017-08-23,1,156
2017-08-24,2,175
2017-08-25,0,172
2017-08-26,1,173
2017-08-27,0,154
2017-08-28,0,169
2017-08-29,0,149
2017-08-30,2,169
2017-08-31,3,158
2017-09-01,1,161
2017-09-02,1,150
2017-09-03,2,139
2017-09-04,2,154
2017-09-05,4,166
2017-09-06,2,115
2017-09-07,5,157
2017-09-08,5,143
2017-09-09,4,142
2017-09-10,3,146
2017-09-11,5,151
2017-09-12,2,157
2017-09-13,0,108
2017-09-14,2,158
2017-09-15,2,172
2017-09-16,2,172
2017-09-17,2,175
2017-09-18,1,167
2017-09-19,2,203
2017-09-20,0,202
2017-09-21,1,175
2017-09-22,2,169
2017-09-23,1,164
2017-09-24,2,175
2017-09-25,2,183
2017-09-26,2,159
2017-09-27,3,172
2017-09-28,1,172
2017-09-29,2,162
2017-09-30,2,179
2017-10-01,1,157
2017-10-02,2,176
2017-10-03,2,169
2017-10-04,3,165
2017-10-05,2,163
2017-10-06,1,183
2017-10-07,1,157
2017-10-08,2,154
2017-10-09,2,173
2017-10-10,0,167
2017-10-11,1,178
2017-10-12,1,168
2017-10-13,1,170
2017-10-14,0,156
2017-10-15,2,174
2017-10-16,0,158
2017-10-17,0,168
2017-10-18,1,173
2017-10-19,4,156
2017-10-20,1,167
2017-10-21,1,159
2017-10-22,2,159
2017-10-23,5,167
2017-10-24,0,158
2017-10-25,0,163
2017-10-26,1,156
2017-10-27,1,166
2017-10-28,2,146
2017-10-29,2,153
2017-10-30,2,166
2017-10-31,3,150
2017-11-01,4,172
2017-11-02,2,151
2017-11-03,1,159
2017-11-04,5,162
2017-11-05,2,155
2017-11-06,0,108
2017-11-07,2,180
2017-11-08,0,149
2017-11-09,1,169
2017-11-10,3,156
2017-11-11,0,159
2017-11-12,0,150
2017-11-13,0,170
2017-11-14,2,150
2017-11-15,1,172
2017-11-16,3,147
2017-11-17,3,124
2017-11-18,4,132
2017-11-19,1,145
2017-11-20,4,132
2017-11-21,0,123
2017-11-22,1,123
2017-11-23,0,122
2017-11-24,1,127
2017-11-25,1,121
2017-11-26,2,133
2017-11-27,1,122
2017-11-28,1,131
2017-11-29,1,134
2017-11-30,0,121
2017-12-01,2,123
2017-12-02,1,124
2017-12-03,0,117
2017-12-04,0,130
2017-12-05,1,115
2017-12-06,0,125
2017-12-07,1,124
2017-12-08,1,117
2017-12-09,0,108
2017-12-10,0,127
2017-12-11,1,121
2017-12-12,0,119
2017-12-13,1,109
2017-12-14,0,112
2017-12-15,1,115
2017-12-16,0,112
2017-12-17,1,96
2017-12-18,1,97
2017-12-19,1,100
2017-12-20,2,101
2017-12-21,0,116
2017-12-22,0,104
2017-12-23,0,100
2017-12-24,0,94
2017-12-25,0,100
2017-12-26,0,97
2017-12-27,1,93
2017-12-28,0,108
2017-12-29,0,90
2017-12-30,2,103
2017-12-31,0,95
2018-01-01,1,98
2018-01-02,0,96
2018-01-03,1,92
2018-01-04,1,104
2018-01-05,1,93
2018-01-06,1,100
2018-01-07,0,110
2018-01-08,0,104
2018-01-09,0,102
2018-01-10,0,113
2018-01-11,0,101
2018-01-12,0,98
2018-01-13,2,110
2018-01-14,0,83
2018-01-15,0,99
2018-01-16,0,105
2018-01-17,2,95
2018-01-18,0,99
2018-01-19,2,109
2018-01-20,1,89
2018-01-21,1,98
2018-01-22,0,111
2018-01-23,1,103
2018-01-24,0,103
2018-01-25,0,114
2018-01-26,0,102
2018-01-27,0,101
2018-01-28,0,94
2018-01-29,1,99
2018-01-30,0,93
2018-01-31,0,104
2018-02-01,0,98
2018-02-02,1,99
2018-02-03,0,93
2018-02-04,0,90
2018-02-05,1,109
2018-02-06,1,84
2018-02-07,1,98
2018-02-08,1,83
2018-02-09,0,97
2018-02-10,0,106
2018-02-11,1,84
2018-02-12,2,99
2018-02-13,2,105
2018-02-14,0,90
2018-02-15,1,102
2018-02-16,1,93
2018-02-17,1,109
2018-02-18,2,95
2018-02-19,0,105
2018-02-20,2,95
2018-02-21,0,102
2018-02-22,2,101
2018-02-23,1,93
2018-02-24,1,102
2018-02-25,2,84
2018-02-26,3,93
2018-02-27,1,78
2018-02-28,0,89
2018-03-01,1,75
2018-03-02,1,97
2018-03-03,0,76
2018-03-04,2,86
2018-03-05,5,82
2018-03-06,0,87
2018-03-07,1,88
2018-03-08,2,74
2018-03-09,1,91
2018-03-10,1,92
2018-03-11,0,84
2018-03-12,2,88
2018-03-13,3,84
2018-03-14,2,79
2018-03-15,0,91
2018-03-16,0,86
2018-03-17,1,76
2018-03-18,2,85
2018-03-19,1,86
2018-03-20,0,82
2018-03-21,1,86
2018-03-22,1,82
2018-03-23,0,86
2018-03-24,1,84
2018-03-25,2,69
2018-03-26,3,92
2018-03-27,0,87
2018-03-28,0,87
2018-03-29,1,85
2018-03-30,0,78
2018-03-31,2,95
2018-04-01,1,89
2018-04-02,2,92
2018-04-03,0,84
2018-04-04,1,93
2018-04-05,0,79
2018-04-06,1,79
2018-04-07,1,83
2018-04-08,0,81
2018-04-09,0,80
2018-04-10,0,88
2018-04-11,2,85
2018-04-12,0,84
2018-04-13,0,86
2018-04-14,1,77
2018-04-15,1,75
2018-04-16,0,87
2018-04-17,1,86
2018-04-18,0,78
2018-04-19,1,83
2018-04-20,0,88
2018-04-21,1,74
2018-04-22,0,77
2018-04-23,0,81
2018-04-24,0,83
2018-04-25,0,75
2018-04-26,0,77
2018-04-27,0,85
2018-04-28,1,75
2018-04-29,1,81
2018-04-30,1,62
2018-05-01,0,83
2018-05-02,1,75
2018-05-03,2,77
2018-05-04,1,65
2018-05-05,0,84
2018-05-06,1,70
2018-05-07,3,84
2018-05-08,1,70
2018-05-09,1,82
2018-05-10,1,80
2018-05-11,1,74
2018-05-12,1,65
2018-05-13,0,77
2018-05-14,1,64
2018-05-15,0,81
2018-05-16,0,86
2018-05-17,2,62
2018-05-18,1,63
2018-05-19,1,53
2018-05-20,3,78
2018-05-21,0,71
2018-05-22,1,73
2018-05-23,0,70
2018-05-24,0,72
2018-05-25,0,62
2018-05-26,0,76
2018-05-27,0,68
2018-05-28,0,67
2018-05-29,1,82
2018-05-30,1,76
2018-05-31,0,78
2018-06-01,1,72
2018-06-02,0,51
2018-06-03,1,67
2018-06-04,1,62
2018-06-05,0,65
2018-06-06,0,59
2018-06-07,1,62
2018-06-08,2,54
2018-06-09,0,64
2018-06-10,0,58
2018-06-11,0,71
2018-06-12,0,57
2018-06-13,0,70
2018-06-14,0,66